www.pogodaiklimat.ru

Погода и климат >> Архив погоды >> Россия >> Алтайский край >> Чарышское


ПОГОДА в Чарышском

  • Прогноз погоды в Чарышском
  • Монитор погоды в Чарышском
  • Климат города

АРХИВ ПОГОДЫ в Чарышском

Время (UTC), дата Ветер
(напр.,м/с)
 
Видим.   Явления Облачность Т
(С)
Тd
(С)
f
(%)
Тe
(С)
Тes
(С)
Комфортность P
(гПа)
Po
(гПа)
Тmin
(С)
Tmax
(С)
R
(мм)
R24
(мм)
S
(см)
00 18.05 штиль 0 50 км туман на расстоянии 8/0
[Ci fib]
-2.4 -4.1 88 -4 -2 1020.9 967.3 -2.8 1
03 18.05 СВ 1 50 км 10/3 1000 м
[Cb cap Ci fib]
+4.8 -4.6 51 +4 +10 1018.1 966.0
06 18.05 З 2 50 км 8/3 1000 м
[Cb cap Ci fib]
+9.5 -4.8 36 +9 +18 1017.1 966.0
09 18.05 З 2 50 км 3/3
[Cu hum]
+13.1 -4.6 29 +13 +21 1014.3 964.0
12 18.05 З 3 50 км ясно +14.0 -6.8 23 +13 +16 1014.2 964.0 +14.4
15 18.05 штиль 0 50 км ясно +7.0 -2.7 50 +7 +7 1013.6 962.3
18 18.05 Ю 3 50 км 10/0
[Ac und]
+9.8 -8.5 27 +8 +8 1012.2 961.3
21 18.05 Ю 4
{11}
50 км 10/0
[Ac und]
+10.3 -6.4 30 +8 +8 1010.5 959.9
00 19.05 СЗ 4
{13}
500 м ливневой снег 10/10 1000 м
[Cb cap]
0.0 -1.2 92 -6 -6 1015.7 963.0 0.0 3
03 19.05 СЗ 4 50 км 7 баллов +0.5 -1.7 85 -5 -3 1019.5 966.7 -0.7
06 19.05 СЗ 5 50 км 10 баллов +2.1 -4.2 63 -3 -3 1022.0 969.3
09 19.05 СЗ 3 50 км 10/10 1000 м
[Cb cap]
+3.1 -3.4 62 -0 -0 1023.4 970.8
12 19.05 З 1 50 км 10/8 1000 м
[Cb cap Ac und]
+3.3 -3.6 61 +2 +2 1025.6 972.9 +3.3 3
15 19.05 ЮВ 1 50 км 8/0
[Ac As]
+1.8 -2.4 74 0 0 1028.1 974.9
18 19.05 штиль 0 50 км 3/0
[Ac As]
+0.7 -2.0 82 -0 -0 1029.9 976.5
21 19.05 штиль 0 50 км 1/0
[Ci fib]
-1.8 -3.3 89 -3 -3 1031.1 977.2
00 20.05 штиль 0 50 км ясно -3.2 -4.5 91 -4 -3 1032.9 978.6 -3.5
03 20.05 С 2 50 км 3/1 1000 м
[Cu hum Ci fib]
+6.0 -5.1 45 +4 +12 1031.9 979.3
06 20.05 З 3 50 км 3/3 1000 м
[Cu Sc]
+9.3 -6.3 33 +8 +17 1030.9 979.0
09 20.05 З 2
{10}
50 км 3/3 1000 м
[Cu Sc]
+13.1 -7.9 22 +13 +21 1028.9 977.7
12 20.05 З 2 50 км 1/0
[Ci fib]
+14.2 -8.3 20 +14 +17 1027.5 976.7 +14.3
15 20.05 штиль 0 50 км 1/0
[Ci fib]
+5.6 -2.9 54 +5 +5 1029.3 976.8
18 20.05 штиль 0 50 км 3/0
[Ci fib]
+1.4 -2.7 74 +1 +1 1030.2 976.9
21 20.05 В 1 50 км 10/0
[Ac und]
+5.2 -2.9 56 +4 +4 1028.3 975.9
00 21.05 ЮВ 2 50 км 10/0
[Ac und]
+8.1 -4.0 42 +7 +7 1027.5 975.7 +1.4
03 21.05 ЮВ 4 50 км 10/0
[Ac und]
+13.0 -2.9 33 +12 +14 1025.7 974.8
06 21.05 Ю 3 50 км 9/0
[Ac As]
+20.7 -3.2 20 +21 +26 комфорт 1022.6 973.0
09 21.05 Ю 3 50 км 10/3 1000 м
[Cb cap Ac As]
+20.5 -2.3 21 +21 +23 комфорт 1021.8 972.3
12 21.05 ЮВ 4 50 км в посл. час ливневой дождь 10/10 1000 м
[Cb cap]
+14.9 +3.9 48 +14 +14 1023.0 972.6 +21.5 0.0
15 21.05 ЮВ 2 50 км 6/3 1000 м
[Sc Ci fib]
+14.2 +2.0 44 +14 +14 1020.3 969.9
18 21.05 штиль 0 50 км 3/1 1000 м
[Sc Ci fib]
+10.9 +1.6 53 +11 +11 1019.8 968.8
21 21.05 В 1 50 км 8/5 1000 м
[Sc Ac trans]
+10.6 +1.8 54 +11 +11 1017.8 966.7
00 22.05 Ю 3 50 км 8/6 1000 м
[Sc Ac trans]
+19.4 -0.3 27 +20 +20 1014.5 965.2 +8.8
03 22.05 Ю 4 50 км 10 баллов +21.4 +0.6 25 +21 +21 комфорт 1012.8 964.0
06 22.05 ЮЗ 1
{12}
50 км 10/10 1000 м
[Cb cap]
+23.9 +2.3 24 +23 +23 комфорт 1009.8 961.5
09 22.05 ЮЗ 4
{12}
50 км 10/10 1000 м
[Cb cap]
+24.7 +1.0 21 +23 +23 комфорт 1007.2 959.2
12 22.05 ЮЗ 3
{13}
50 км 3/0
[Ac trans]
+25.3 +1.3 21 1004.6 956.5 +26.9
15 22.05 ЮВ 3
{11}
50 км 8/3 1000 м
[Cb cap Ac As]
+21.5 +2.0 28 +21 +21 комфорт 1002.5 954.1
18 22.05 ЮВ 2
{11}
50 км 10/3 1000 м
[Cb cap Ac As]
+16.6 +8.1 57 +17 +17 1001.6 952.6
21 22.05 С 2 50 км {ливн. осадки} 10/10 1000 м
[Cb cap]
+14.1 +10.1 77 +14 +14 1000.3 950.8
00 23.05 ЮЗ 1 10 км ливневой дождь 10/10 1000 м
[Cb cap]
+12.8 +11.5 92 +13 +13 998.0 948.5 +12.1 3
03 23.05 С 2 10 км слабый ливневой дождь 10 баллов +9.0 +7.0 87 +7 +7 999.5 949.3 +8.7
06 23.05 СЗ 3 4000 м ливневой дождь 10/10 600 м
[Cb cap]
+7.7 +5.8 88 +5 +5 999.8 949.3
09 23.05 СЗ 2 50 км {ливн. осадки} 10/8 1000 м
[Cb cap Ac und]
+8.1 +4.6 79 +6 +7 1002.4 951.8
12 23.05 СЗ 3 50 км {ливн. осадки} 10/8 1000 м
[Cb cap Ac und]
+10.1 +4.7 69 +8 +8 1003.6 953.3 +12.8 15
15 23.05 З 2 2000 м ливневой дождь 10/10 600 м
[Cb cap]
+4.1 +1.3 82 +1 +1 1009.5 957.9
18 23.05 Ю 1 10 км слабый ливневой дождь 10/10 600 м
[Cb cap]
+2.3 +0.8 90 +1 +1 1011.4 959.3
21 23.05 Ю 1 н/о н/о +2.7 +1.4 91 1014.7 962.3
00 24.05 С 2 1000 м ливневой дождь со снегом 10/10 600 м
[Cb cap]
+1.4 0.0 90 -2 -2 1018.9 966.3 +1.4 17
03 24.05 З 1 20 км слабый ливневой дождь 10 баллов +2.8 +0.4 84 +1 +1 1023.3 970.7 +0.9
06 24.05 З 2 20 км слабый ливневой дождь 10/8 1000 м
[Cb cap Ac As]
+4.4 -0.6 70 +2 +3 1023.9 971.5
09 24.05 З 4 50 км 10/8 1000 м
[Cb cap Ac trans]
+7.0 -1.6 54 +4 +5 1024.0 972.2
12 24.05 З 2 50 км 10/8 1000 м
[Cb cap Ac As]
+6.7 -1.0 58 +5 +5 1025.1 973.0 +8.0 3
15 24.05 ЮВ 2 50 км 9/1 1000 м
[Cb cap Ac trans]
+4.8 +0.2 72 +2 +2 1024.8 972.4
18 24.05 З 1 50 км 10/0
[Ac und]
+6.4 -1.2 58 +6 +6 1022.4 970.5
21 24.05 ЮВ 2 50 км 10/6 1000 м
[Cb cap Ac und]
+7.7 -0.4 56 +6 +6 1020.0 968.4

 

Местоположение метеостанции Чарышское (Алтайский край, Россия): широта 51.38 долгота 83.58 высота над уровнем моря 429 м.

В архиве по умолчанию представлена погода в Чарышском за последнюю неделю. Архивные данные за месяц целиком и за предыдущие месяцы, начиная с января 2011 года, Вы можете получить, выбрав интересующий диапазон дат из раскрывающегося списка и нажав кнопку "Ввод!".


*Определитесь, кто Вы:
робот инопланетянин человек

Внимание! Время в таблицах - всемирное. Для получения местного времени необходимо прибавить поправку, которая в Чарышском равна 7 ч.

Смотрите также архив погоды в соседних городах и на ближайших метеорологических станциях:

Погода в Солонешном (Алтайский край, Россия) (59 км)
Погода в Краснощеково (Алтайский край, Россия) (67 км)
Погода в Семинском перевале (Алтай, Россия) (81 км)
Погода в Усть-Калманке (Алтайский край, Россия) (83 км)
Погода в Усть-Кане (Алтай, Россия) (96 км)
Погода в Змеиногорске (Алтайский край, Россия) (101 км)
Погода в Усть-Чарышской Пристани (Алтайский край, Россия) (114 км)
Погода в Белокурихе (Алтайский край, Россия) (117 км)
Погода в Риддере (Восточно-Казахстанская область, Казахстан) (117 км)
Погода в Шипуново (Алтайский край, Россия) (125 км)

Пояснения к столбцам:

Ветер - указаны скорость ветра в м/с - средняя за 10 мин, порывы в срок и между сроками (в фигурных скобках) и направление, откуда дует ветер: С - северный, СВ - северо-восточный, В - восточный, ЮВ - юго-восточный, Ю - южный, ЮЗ - юго-западный, З - западный, СЗ - северо-западный.
Видимость - горизонтальная дальность видимости в метрах или километрах. При видимости от 1 до 10 км при отсутствии осадков обычно наблюдается дымка, при ухудшении видимости до 1 км и менее - туман. В сухую погоду видимость может ухудшаться дымом, пылью или мглою.
Явления - указаны атмосферные явления, наблюдавшиеся в срок или в последний час перед сроком; фигурными скобками обозначены явления, наблюдавшиеся между сроками (за 1-3 часа до срока); квадратными скобками обозначены град или гололедные отложения с указанием их диаметра в мм.
Облачность - указаны через наклонную черту общая и нижняя облачность в баллах и высота нижней границы облаков в метрах; квадратными скобками обозначены формы облаков: Ci - перистые, Cs - перисто-слоистые, Cc - перисто-кучевые, Ac - высококучевые, As - высокослоистые, Sc - слоисто-кучевые, Ns - слоисто-дождевые, Cu - кучевые, Cb - кучево-дождевые. Подробнее классификацию облаков см. в Атласе облаков (PDF).
T - Температура воздуха - температура, измеренная на высоте 2 м над землей.
Td - Температура точки росы - температура, при понижении до которой содержащийся в воздухе водяной пар достигнет насыщения.
f - Относительная влажность воздуха - влажноcть воздуха, измеренная на высоте 2 м над землей.
Te - Эффективная температура - температура, которую ощущает одетый по сезону человек в тени. Характеристика душности погоды. При расчете учитывается влияние влажности воздуха и скорости ветра на теплоощущения человека.
Tes - Эффективная температура на солнце - температура, которую ощущает человек, с поправкой на солнечный нагрев. Характеристика знойности погоды. Зависит от высоты солнца над горизонтом, облачности и скорости ветра. Ночью, в пасмурную погоду, а также при ветре 12 м/с и более поправка равна нулю.
P - Атмосферное давление - приведенное к уровню моря атмосферное давление.
Po - Атмосферное давление - измеренное на уровне метеостанции атмосферное давление.
Tmin - Минимальная температура - минимум температуры воздуха на высоте 2 м над землей.
Tmax - Максимальная температура - максимум температуры воздуха на высоте 2 м над землей.
R - Количество осадков - Количество выпавших осадков за период времени, мм. При наведении курсора мыши на число - период времени, за который выпало указанное количество осадков.
R24 - Количество осадков - Количество выпавших осадков за 24 часа, мм.
S - Снежный покров - Высота снежного покрова, см. При наведении курсора мыши на число - состояние снежного покрова и степень покрытия местности в баллах.